EN

Hourly Weather Kulakovo

Today, 27 November, Friday

Time Temperature Precipitation Wind Pressure Humidity
00:00 +1°C° 0 mm 3 mps 747 mmHg 87%
01:00 +1°C° 0 mm 3 mps 746 mmHg 87%
02:00 +1°C° 0 mm 3 mps 746 mmHg 88%
03:00 +1°C° 0.5 mm 3 mps 746 mmHg 90%
04:00 0°C° 0.5 mm 3 mps 745 mmHg 92%
05:00 0°C° 0.5 mm 3 mps 745 mmHg 94%
06:00 +1°C° 0.9 mm 3 mps 744 mmHg 95%
07:00 +1°C° 0.9 mm 3 mps 744 mmHg 95%
08:00 +1°C° 0.9 mm 3 mps 744 mmHg 96%
09:00 +2°C° 0.7 mm 3 mps 744 mmHg 96%
10:00 +2°C° 0.7 mm 3 mps 744 mmHg 96%
11:00 +2°C° 0.7 mm 3 mps 743 mmHg 97%
12:00 +2°C° 0.5 mm 3 mps 744 mmHg 94%
13:00 +1°C° 0.5 mm 4 mps 744 mmHg 91%
14:00 +1°C° 0.5 mm 5 mps 744 mmHg 89%
15:00 +1°C° 0 mm 4 mps 744 mmHg 86%
16:00 +1°C° 0 mm 3 mps 744 mmHg 84%
17:00 0°C° 0 mm 3 mps 745 mmHg 82%
18:00 0°C° 0.1 mm 3 mps 745 mmHg 86%
19:00 +1°C° 0.1 mm 2 mps 746 mmHg 89%
20:00 -1°C° 0.1 mm 2 mps 746 mmHg 93%
21:00 -1°C° 0.1 mm 2 mps 746 mmHg 93%
22:00 -1°C° 0.1 mm 2 mps 747 mmHg 93%
23:00 -1°C° 0.1 mm 2 mps 747 mmHg 93%

Tomorrow, 28 November, Saturday

Time Temperature Precipitation Wind Pressure Humidity
00:00 -1°C° 0.2 mm 2 mps 748 mmHg 94%
01:00 -1°C° 0.2 mm 2 mps 748 mmHg 95%
02:00 -1°C° 0.2 mm 2 mps 748 mmHg 95%
03:00 -1°C° 0.4 mm 2 mps 748 mmHg 96%
04:00 -1°C° 0.4 mm 2 mps 748 mmHg 96%
05:00 -1°C° 0.4 mm 2 mps 749 mmHg 96%
06:00 -1°C° 0.3 mm 2 mps 749 mmHg 97%
07:00 +1°C° 0.3 mm 1 mps 749 mmHg 97%
08:00 +2°C° 0.3 mm 1 mps 750 mmHg 97%
09:00 +2°C° 0.3 mm 1 mps 750 mmHg 96%
10:00 +2°C° 0.3 mm 1 mps 751 mmHg 95%
11:00 +2°C° 0.3 mm 1 mps 751 mmHg 94%
12:00 +2°C° 0.1 mm 1 mps 751 mmHg 92%
13:00 +2°C° 0.1 mm 1 mps 752 mmHg 91%
14:00 +2°C° 0.1 mm 1 mps 752 mmHg 90%
15:00 +2°C° 0 mm 1 mps 752 mmHg 90%
16:00 +1°C° 0 mm 1 mps 752 mmHg 91%
17:00 0°C° 0 mm 1 mps 752 mmHg 92%
18:00 0°C° 0 mm 1 mps 753 mmHg 92%
19:00 -2°C° 0 mm 2 mps 753 mmHg 92%
20:00 -2°C° 0 mm 2 mps 754 mmHg 92%
21:00 -2°C° 0 mm 2 mps 754 mmHg 92%
22:00 -3°C° 0 mm 2 mps 754 mmHg 93%
23:00 -3°C° 0 mm 2 mps 754 mmHg 93%

Day after tomorrow, 29 November, Sunday

Time Temperature Precipitation Wind Pressure Humidity
00:00 -2°C° 0 mm 2 mps 754 mmHg 93%
01:00 -2°C° 0 mm 2 mps 755 mmHg 94%
02:00 -2°C° 0 mm 2 mps 755 mmHg 94%
03:00 -2°C° 0 mm 2 mps 755 mmHg 94%
04:00 -2°C° 0 mm 2 mps 755 mmHg 94%
05:00 -2°C° 0 mm 2 mps 755 mmHg 93%
06:00 -2°C° 0 mm 2 mps 755 mmHg 94%
07:00 -2°C° 0 mm 2 mps 755 mmHg 95%
08:00 -2°C° 0 mm 2 mps 755 mmHg 96%
09:00 -1°C° 0 mm 3 mps 755 mmHg 93%
10:00 -1°C° 0 mm 3 mps 755 mmHg 91%
11:00 0°C° 0 mm 3 mps 755 mmHg 89%
12:00 0°C° 0.1 mm 3 mps 754 mmHg 91%
13:00 0°C° 0.1 mm 3 mps 754 mmHg 93%
14:00 0°C° 0.1 mm 3 mps 754 mmHg 95%
15:00 -1°C° 0.2 mm 3 mps 753 mmHg 96%
16:00 -1°C° 0.2 mm 3 mps 752 mmHg 96%
17:00 -2°C° 0.2 mm 4 mps 752 mmHg 97%
18:00 -1°C° 0.8 mm 3 mps 752 mmHg 97%
19:00 -1°C° 0.8 mm 3 mps 752 mmHg 97%
20:00 -1°C° 0.8 mm 3 mps 751 mmHg 97%
21:00 -1°C° 0.5 mm 3 mps 751 mmHg 98%
22:00 -1°C° 0.5 mm 2 mps 751 mmHg 98%
23:00 +2°C° 0.5 mm 1 mps 751 mmHg 98%

30 November, Monday

Time Temperature Precipitation Wind Pressure Humidity
00:00 -1°C° 0 mm 2 mps 751 mmHg 97%
01:00 -1°C° 0 mm 2 mps 752 mmHg 96%
02:00 -1°C° 0 mm 3 mps 752 mmHg 95%
03:00 -2°C° 0 mm 3 mps 752 mmHg 94%
04:00 -2°C° 0 mm 3 mps 752 mmHg 94%
05:00 -2°C° 0 mm 3 mps 752 mmHg 94%
06:00 -2°C° 0 mm 3 mps 752 mmHg 94%
07:00 -2°C° 0 mm 3 mps 753 mmHg 95%
08:00 -2°C° 0 mm 3 mps 753 mmHg 95%
09:00 -2°C° 0.1 mm 3 mps 754 mmHg 94%
10:00 -2°C° 0.1 mm 3 mps 754 mmHg 92%
11:00 -2°C° 0.1 mm 4 mps 754 mmHg 91%
12:00 -2°C° 0.1 mm 4 mps 754 mmHg 91%
13:00 -2°C° 0.1 mm 4 mps 754 mmHg 91%
14:00 -2°C° 0.1 mm 4 mps 755 mmHg 92%
15:00 -2°C° 0.2 mm 4 mps 755 mmHg 93%
16:00 -3°C° 0.2 mm 4 mps 755 mmHg 94%
17:00 -3°C° 0.2 mm 4 mps 755 mmHg 95%
18:00 -3°C° 0.1 mm 4 mps 756 mmHg 94%
19:00 -3°C° 0.1 mm 4 mps 756 mmHg 93%
20:00 -3°C° 0.1 mm 4 mps 757 mmHg 93%
21:00 -3°C° 0 mm 4 mps 757 mmHg 92%
22:00 -3°C° 0 mm 4 mps 757 mmHg 92%
23:00 -4°C° 0 mm 4 mps 757 mmHg 92%

1 December, Tuesday

Time Temperature Precipitation Wind Pressure Humidity
00:00 -4°C° 0 mm 4 mps 757 mmHg 91%
01:00 -4°C° 0 mm 4 mps 757 mmHg 90%
02:00 -4°C° 0 mm 4 mps 757 mmHg 89%
03:00 -4°C° 0 mm 4 mps 757 mmHg 89%
04:00 -4°C° 0 mm 4 mps 757 mmHg 90%
05:00 -5°C° 0 mm 4 mps 757 mmHg 90%
06:00 -5°C° 0 mm 4 mps 757 mmHg 90%
07:00 -5°C° 0 mm 4 mps 757 mmHg 90%
08:00 -5°C° 0 mm 4 mps 757 mmHg 90%
09:00 -5°C° 0 mm 4 mps 757 mmHg 88%
10:00 -4°C° 0 mm 4 mps 757 mmHg 86%
11:00 -4°C° 0 mm 4 mps 757 mmHg 84%
12:00 -3°C° 0 mm 4 mps 757 mmHg 84%
13:00 -3°C° 0 mm 4 mps 756 mmHg 84%
14:00 -3°C° 0 mm 4 mps 756 mmHg 84%
15:00 -3°C° 0 mm 4 mps 756 mmHg 86%
16:00 -4°C° 0 mm 3 mps 756 mmHg 88%
17:00 -4°C° 0 mm 3 mps 756 mmHg 89%
18:00 -4°C° 0 mm 3 mps 756 mmHg 90%
19:00 -4°C° 0 mm 3 mps 756 mmHg 90%
20:00 -4°C° 0 mm 3 mps 756 mmHg 90%
21:00 -4°C° 0 mm 3 mps 756 mmHg 90%
22:00 -5°C° 0 mm 3 mps 756 mmHg 90%
23:00 -5°C° 0 mm 3 mps 756 mmHg 91%

2 December, Wednesday

Time Temperature Precipitation Wind Pressure Humidity
00:00 -4°C° 0 mm 2 mps 756 mmHg 91%
01:00 -4°C° 0 mm 2 mps 756 mmHg 91%
02:00 -4°C° 0 mm 2 mps 756 mmHg 92%
03:00 -4°C° 0 mm 2 mps 756 mmHg 92%
04:00 -4°C° 0 mm 2 mps 756 mmHg 92%
05:00 -4°C° 0 mm 2 mps 756 mmHg 92%
06:00 -5°C° 0 mm 2 mps 756 mmHg 92%
07:00 -5°C° 0 mm 2 mps 756 mmHg 93%
08:00 -5°C° 0 mm 2 mps 756 mmHg 93%
09:00 -3°C° 0 mm 1 mps 757 mmHg 90%
10:00 -2°C° 0 mm 1 mps 757 mmHg 87%
11:00 -1°C° 0 mm 1 mps 757 mmHg 84%
12:00 -1°C° 0 mm 1 mps 757 mmHg 84%
13:00 -1°C° 0 mm 1 mps 757 mmHg 84%
14:00 -1°C° 0 mm 1 mps 757 mmHg 83%
15:00 -1°C° 0 mm 1 mps 757 mmHg 86%
16:00 -2°C° 0 mm 1 mps 757 mmHg 88%
17:00 -3°C° 0 mm 1 mps 758 mmHg 90%
18:00 -3°C° 0 mm 1 mps 758 mmHg 90%
19:00 -3°C° 0 mm 1 mps 758 mmHg 90%
20:00 -3°C° 0 mm 1 mps 759 mmHg 90%
21:00 -3°C° 0 mm 1 mps 759 mmHg 91%
22:00 -3°C° 0 mm 1 mps 759 mmHg 92%
23:00 -3°C° 0 mm 1 mps 760 mmHg 93%
Show more

We Need Your Consent

Meteoprog and our Service Providers may store and access personal data such as cookies, device identifiers or other similar technologies on your device and process such data to personalise content and ads, as well as provide social media features and to analyse the traffic.

  • Store and/or access information on your device

    Cookies, device identifiers or other information can be stored or accessed on your device for the purposes indicated above.

  • Personalised ads and content, ad and content measurement, audience insights, and products development

    Ads and content can be personalised based on a profile. More data can be added to better personalise ads and content. Ad and content performance can be measured. Insights about the audience who saw the ads and content can be derived. Such data can be used to develop or improve user’s experience, systems and software.

By clicking ‘I Agree’ you will allow the use of indicated cookies, device identifiers, web beacons or other similar technologies. Your settings can be changed in the browser on your device.

For certain purposes, legitimate interests may be relied on, rather than consent. You can read more about this in our Privacy and Cookie Policy.